GW1496 Weather Reports


Display with metric or nautical units.
time (UTC)temp
F
wind
direction
speed
MPH
gust
MPH
rain 1hr
in
rain 24hr
in
rain mn
in
humidity
%
barometer
mb
20260905004824 76 270 1.0 1.0 0.00 0.00 0.00 91 1006.0
20260905004407 76 270 0.0 0.0 0.00 0.00 0.00 91 1006.0
20260905003950 76 270 0.0 0.0 0.00 0.00 0.00 91 1006.0
20260905003104 77 270 0.0 0.0 0.00 0.00 0.00 91 1006.7
20260905002648 77 270 0.0 0.0 0.00 0.00 0.00 91 1006.7
20260905002231 77 225 0.0 0.0 0.00 0.00 0.00 91 1006.7
20260905001817 77 225 0.0 0.0 0.00 0.00 0.00 91 1006.7
20260905001400 77 225 0.0 0.0 0.00 0.00 0.00 90 1006.7
20260905000943 77 225 1.0 1.0 0.00 0.00 0.00 90 1006.7
20260905000525 77 270 0.0 0.0 0.00 0.00 0.00 90 1006.7
20260905000105 77 270 4.0 4.0 0.00 0.00 0.00 90 1006.7
20260904235217 78 270 1.0 1.0 0.00 0.00 0.00 89 1006.7
20260904234801 78 270 0.0 0.0 0.00 0.00 0.00 89 1006.7
20260904234331 79 270 0.0 0.0 0.00 0.00 0.00 87 1006.7
20260904233914 79 270 0.0 0.0 0.00 0.00 0.00 86 1006.7
20260904233443 80 270 0.0 0.0 0.00 0.00 0.00 85 1006.7
20260904233012 80 270 0.0 0.0 0.00 0.00 0.00 85 1006.7
20260904232111 80 270 0.0 0.0 0.00 0.00 0.00 83 1006.7
20260904231654 80 270 0.0 0.0 0.00 0.00 0.00 83 1007.7
20260904231223 80 270 0.0 0.0 0.00 0.00 0.00 83 1007.7
20260904230752 80 270 0.0 0.0 0.00 0.00 0.00 83 1007.7
20260904225849 80 270 0.0 0.0 0.00 0.00 0.00 83 1007.7
20260904225432 80 270 1.0 1.0 0.00 0.00 0.00 82 1007.7
20260904225016 80 270 0.0 0.0 0.00 0.00 0.00 83 1007.7
20260904224529 79 248 0.0 0.0 0.00 0.00 0.00 85 1006.7
20260904223153 80 270 2.0 2.0 0.00 0.00 0.00 85 1006.7
20260904222736 80 248 2.0 2.0 0.00 0.00 0.00 84 1006.7
20260904222319 80 180 2.0 2.0 0.00 0.00 0.00 85 1006.7
20260904221902 80 248 0.0 0.0 0.00 0.00 0.00 85 1006.7
20260904220943 80 248 1.0 1.0 0.00 0.00 0.00 84 1006.7
20260904220523 80 248 0.0 0.0 0.00 0.00 0.00 84 1006.7
20260904215646 80 22 0.0 0.0 0.00 0.00 0.00 84 1007.7
20260904215229 81 22 0.0 0.0 0.00 0.00 0.00 84 1007.7
20260904214755 81 22 0.0 0.0 0.00 0.00 0.00 83 1007.7
20260904214339 81 22 0.0 0.0 0.00 0.00 0.00 82 1007.7
20260904213902 81 22 0.0 0.0 0.00 0.00 0.00 83 1007.7
20260904213446 81 22 0.0 0.0 0.00 0.00 0.00 82 1007.7
20260904213013 81 68 0.0 0.0 0.00 0.00 0.00 82 1007.7
20260904212556 81 225 0.0 0.0 0.00 0.00 0.00 82 1007.7
20260904212140 80 225 0.0 0.0 0.00 0.00 0.00 82 1007.7
20260904211708 80 202 0.0 0.0 0.00 0.00 0.00 82 1007.7
20260904211236 80 202 0.0 0.0 0.00 0.00 0.00 84 1007.7
20260904210331 80 248 2.0 2.0 0.00 0.00 0.00 85 1007.7
20260904205914 81 248 2.0 2.0 0.00 0.00 0.00 84 1007.7
20260904204554 82 270 1.0 1.0 0.00 0.00 0.00 82 1006.7
20260904204137 82 292 0.0 0.0 0.00 0.00 0.00 81 1006.7
20260904203650 82 292 0.0 0.0 0.00 0.00 0.00 82 1006.7
20260904202801 82 292 1.0 1.0 0.00 0.00 0.00 82 1007.7
20260904202346 82 292 2.0 2.0 0.00 0.00 0.00 81 1007.7
20260904201928 82 158 1.0 1.0 0.00 0.00 0.00 81 1007.7
20260904201512 83 112 0.0 0.0 0.00 0.00 0.00 84 1006.7
20260904200606 85 68 5.0 5.0 0.00 0.00 0.00 74 1006.7
20260904195715 90 45 6.0 6.0 0.00 0.00 0.00 70 1006.7
20260904195241 92 90 4.0 4.0 0.00 0.00 0.00 65 1006.7
20260904194810 94 112 2.0 2.0 0.00 0.00 0.00 60 1006.7
20260904194337 94 68 1.0 1.0 0.00 0.00 0.00 55 1006.7
20260904193917 94 90 0.0 0.0 0.00 0.00 0.00 54 1006.7
20260904192958 93 90 2.0 2.0 0.00 0.00 0.00 53 1006.7
20260904192545 92 68 2.0 2.0 0.00 0.00 0.00 55 1006.7
20260904192113 91 68 1.0 1.0 0.00 0.00 0.00 58 1006.7
20260904191643 91 112 0.0 0.0 0.00 0.00 0.00 58 1006.7
20260904191208 91 68 3.0 3.0 0.00 0.00 0.00 60 1006.7
20260904190752 92 338 1.0 1.0 0.00 0.00 0.00 61 1006.7
20260904190323 92 338 0.0 0.0 0.00 0.00 0.00 60 1007.7
20260904185852 92 22 2.0 2.0 0.00 0.00 0.00 55 1007.7
20260904185436 92 22 0.0 0.0 0.00 0.00 0.00 58 1007.7
20260904184531 91 45 0.0 0.0 0.00 0.00 0.00 53 1007.7
20260904184059 91 45 0.0 0.0 0.00 0.00 0.00 57 1007.7
20260904183641 90 112 2.0 2.0 0.00 0.00 0.00 54 1007.7
20260904183225 90 90 3.0 3.0 0.00 0.00 0.00 57 1007.7
20260904182809 89 90 3.0 3.0 0.00 0.00 0.00 56 1007.7
20260904182353 89 112 2.0 2.0 0.00 0.00 0.00 57 1007.7
20260904181937 88 22 3.0 3.0 0.00 0.00 0.00 57 1007.7
20260904181505 89 90 1.0 1.0 0.00 0.00 0.00 59 1007.7
20260904181048 90 292 2.0 2.0 0.00 0.00 0.00 57 1007.7
20260904180616 92 112 6.0 6.0 0.00 0.00 0.00 57 1007.7
20260904180128 94 112 3.0 3.0 0.00 0.00 0.00 55 1007.7
20260904175656 95 68 5.0 5.0 0.00 0.00 0.00 53 1007.7
20260904175224 94 248 0.0 0.0 0.00 0.00 0.00 50 1007.7
20260904174806 94 248 2.0 2.0 0.00 0.00 0.00 51 1007.7
20260904173411 94 248 2.0 2.0 0.00 0.00 0.00 51 1007.7
20260904172505 93 248 4.0 5.0 0.00 0.00 0.00 53 1007.7
20260904172047 93 248 2.0 2.0 0.00 0.00 0.00 53 1007.7
20260904171629 93 270 5.0 6.0 0.00 0.00 0.00 52 1008.8
20260904170712 94 248 3.0 4.0 0.00 0.00 0.00 53 1008.8
20260904170253 94 248 0.0 0.0 0.00 0.00 0.00 53 1008.8
20260904165836 93 270 2.0 2.0 0.00 0.00 0.00 53 1008.8
20260904164949 94 270 0.0 0.0 0.00 0.00 0.00 53 1008.8
20260904164532 94 248 1.0 1.0 0.00 0.00 0.00 51 1008.8
20260904164114 94 248 2.0 2.0 0.00 0.00 0.00 52 1008.8
20260904163644 94 22 2.0 2.0 0.00 0.00 0.00 53 1008.8
20260904163227 94 225 2.0 2.0 0.00 0.00 0.00 53 1008.8
20260904162809 93 135 0.0 0.0 0.00 0.00 0.00 53 1008.8
20260904162337 93 68 0.0 0.0 0.00 0.00 0.00 57 1008.8
20260904161921 92 68 2.0 2.0 0.00 0.00 0.00 60 1008.8
20260904161033 93 68 2.0 2.0 0.00 0.00 0.00 61 1008.8
20260904160617 93 90 2.0 2.0 0.00 0.00 0.00 59 1008.8
20260904160202 92 68 0.0 0.0 0.00 0.00 0.00 58 1008.8
20260904155746 92 68 2.0 2.0 0.00 0.00 0.00 59 1008.8
20260904155328 91 68 1.0 1.0 0.00 0.00 0.00 61 1008.8
20260904154911 90 68 0.0 0.0 0.00 0.00 0.00 60 1008.8
20260904154454 90 68 2.0 2.0 0.00 0.00 0.00 62 1008.8
20260904154023 90 68 2.0 2.0 0.00 0.00 0.00 63 1008.8
20260904153607 90 68 3.0 3.0 0.00 0.00 0.00 64 1008.8
20260904153149 90 90 2.0 2.0 0.00 0.00 0.00 64 1008.8
20260904152247 89 90 1.0 1.0 0.00 0.00 0.00 63 1008.8
20260904151827 89 90 0.0 0.0 0.00 0.00 0.00 66 1008.8
20260904151409 89 90 2.0 2.0 0.00 0.00 0.00 65 1008.8
20260904150951 89 90 2.0 2.0 0.00 0.00 0.00 65 1008.8
20260904150536 89 90 2.0 2.0 0.00 0.00 0.00 66 1008.8
20260904150120 89 90 2.0 2.0 0.00 0.00 0.00 64 1008.8
20260904145230 89 112 1.0 1.0 0.00 0.00 0.00 67 1008.8
20260904144758 89 112 1.0 1.0 0.00 0.00 0.00 66 1008.8
20260904144328 88 112 0.0 0.0 0.00 0.00 0.00 62 1008.8
20260904143854 87 112 1.0 1.0 0.00 0.00 0.00 65 1008.8
20260904143437 87 112 0.0 0.0 0.00 0.00 0.00 70 1008.8
20260904143006 86 112 0.0 0.0 0.00 0.00 0.00 62 1008.8
20260904142549 85 112 0.0 0.0 0.00 0.00 0.00 67 1008.8
20260904141703 84 112 2.0 2.0 0.00 0.00 0.00 72 1009.8
20260904141246 84 112 2.0 2.0 0.00 0.00 0.00 71 1009.8
20260904140832 83 158 2.0 2.0 0.00 0.00 0.00 71 1009.8
20260904140416 82 158 0.0 0.0 0.00 0.00 0.00 72 1009.8
20260904135958 80 158 1.0 1.0 0.00 0.00 0.00 74 1009.8
20260904135540 79 158 0.0 0.0 0.00 0.00 0.00 76 1009.8
20260904135123 80 158 0.0 0.0 0.00 0.00 0.00 79 1009.8
20260904134706 82 158 1.0 1.0 0.00 0.00 0.00 78 1009.8
20260904134235 82 180 1.0 1.0 0.00 0.00 0.00 75 1009.8
20260904133802 82 180 1.0 1.0 0.00 0.00 0.00 66 1009.8
20260904133346 80 180 0.0 0.0 0.00 0.00 0.00 70 1009.8
20260904132928 79 180 0.0 0.0 0.00 0.00 0.00 76 1009.8
20260904132042 75 180 1.0 1.0 0.00 0.00 0.00 80 1009.8
20260904131611 74 180 0.0 0.0 0.00 0.00 0.00 85 1009.8
20260904131155 74 180 0.0 0.0 0.00 0.00 0.00 85 1009.8
20260904130307 73 180 0.0 0.0 0.00 0.00 0.00 88 1009.8
20260904125419 72 180 0.0 0.0 0.00 0.00 0.00 89 1009.8
20260904125004 72 180 0.0 0.0 0.00 0.00 0.00 90 1009.8
20260904123217 71 248 0.0 0.0 0.00 0.00 0.00 91 1009.8
20260904122801 71 248 0.0 0.0 0.00 0.00 0.00 91 1009.8
20260904121902 71 248 0.0 0.0 0.00 0.00 0.00 92 1009.8
20260904121448 70 248 0.0 0.0 0.00 0.00 0.00 92 1009.8
20260904121034 70 248 0.0 0.0 0.00 0.00 0.00 92 1009.8
20260904120618 70 248 0.0 0.0 0.00 0.00 0.00 92 1009.8
20260904120201 70 202 0.0 0.0 0.00 0.00 0.00 92 1009.8
20260904115745 70 158 1.0 1.0 0.00 0.00 0.00 93 1009.8
20260904115331 70 112 0.0 0.0 0.00 0.00 0.00 93 1009.8
20260904114917 70 112 0.0 0.0 0.00 0.00 0.00 93 1009.8
20260904114502 71 112 1.0 1.0 0.00 0.00 0.00 93 1009.8
20260904113616 71 112 0.0 0.0 0.00 0.00 0.00 93 1009.8
20260904113201 71 112 0.0 0.0 0.00 0.00 0.00 93 1008.8
20260904112745 71 0 0.0 0.0 0.00 0.00 0.00 93 1008.8
20260904112329 70 0 0.0 0.0 0.00 0.00 0.00 93 1008.8
20260904111913 70 0 0.0 0.0 0.00 0.00 0.00 93 1008.8
20260904111457 70 0 0.0 0.0 0.00 0.00 0.00 93 1009.8
20260904111042 70 0 0.0 0.0 0.00 0.00 0.00 92 1009.8
20260904110626 71 0 0.0 0.0 0.00 0.00 0.00 93 1009.8
20260904110211 71 0 1.0 1.0 0.00 0.00 0.00 93 1008.8
20260904105308 71 22 0.0 0.0 0.00 0.00 0.00 92 1008.8
20260904104421 71 22 0.0 0.0 0.00 0.00 0.00 92 1008.8
20260904103950 71 45 0.0 0.0 0.00 0.00 0.00 92 1008.8
20260904103521 71 45 0.0 0.0 0.00 0.00 0.00 92 1008.8
20260904103105 71 45 0.0 0.0 0.00 0.00 0.00 92 1008.8
20260904102634 71 45 0.0 0.0 0.00 0.00 0.00 92 1008.8
20260904102220 71 45 0.0 0.0 0.00 0.00 0.00 92 1008.8
20260904101802 71 45 0.0 0.0 0.00 0.00 0.00 92 1008.8
20260904101347 71 45 0.0 0.0 0.00 0.00 0.00 92 1008.8
20260904100932 71 45 0.0 0.0 0.00 0.00 0.00 92 1008.8
20260904100517 71 45 0.0 0.0 0.00 0.00 0.00 92 1008.8
20260904095617 71 45 0.0 0.0 0.00 0.00 0.00 92 1008.8
20260904095159 71 45 0.0 0.0 0.00 0.00 0.00 92 1008.8
20260904094744 71 45 0.0 0.0 0.00 0.00 0.00 92 1008.8
20260904093843 71 45 0.0 0.0 0.00 0.00 0.00 93 1008.8
20260904092952 71 112 0.0 0.0 0.00 0.00 0.00 93 1008.8
20260904092036 71 112 0.0 0.0 0.00 0.00 0.00 93 1008.8
20260904091120 71 112 0.0 0.0 0.00 0.00 0.00 93 1008.8
20260904090704 71 112 0.0 0.0 0.00 0.00 0.00 93 1008.8
20260904090250 71 112 0.0 0.0 0.00 0.00 0.00 93 1008.8
20260904085834 71 112 0.0 0.0 0.00 0.00 0.00 93 1008.8
20260904085419 71 112 1.0 1.0 0.00 0.00 0.00 93 1008.8
20260904085003 71 112 0.0 0.0 0.00 0.00 0.00 93 1008.8
20260904084533 71 112 0.0 0.0 0.00 0.00 0.00 93 1007.7
20260904084118 71 112 0.0 0.0 0.00 0.00 0.00 93 1007.7
20260904083648 71 112 0.0 0.0 0.00 0.00 0.00 93 1007.7
20260904083233 71 112 0.0 0.0 0.00 0.00 0.00 93 1007.7
20260904082816 71 112 0.0 0.0 0.00 0.00 0.00 93 1008.8
20260904082347 71 112 0.0 0.0 0.00 0.00 0.00 93 1008.8
20260904081930 71 112 0.0 0.0 0.00 0.00 0.00 93 1008.8
20260904081502 71 112 0.0 0.0 0.00 0.00 0.00 94 1007.7
20260904081048 72 112 1.0 1.0 0.00 0.00 0.00 94 1007.7
20260904080617 72 112 1.0 1.0 0.00 0.00 0.00 93 1007.7
20260904075730 72 112 0.0 0.0 0.00 0.00 0.00 93 1007.7
20260904075314 72 112 2.0 2.0 0.00 0.00 0.00 93 1007.7
20260904074858 72 112 0.0 0.0 0.00 0.00 0.00 93 1007.7
20260904074443 72 112 1.0 1.0 0.00 0.00 0.00 93 1007.7
20260904074012 72 68 2.0 2.0 0.00 0.00 0.00 93 1007.7
20260904073539 72 68 0.0 0.0 0.00 0.00 0.00 94 1007.7
20260904073108 72 68 0.0 0.0 0.00 0.00 0.00 93 1008.8
20260904072654 72 68 1.0 1.0 0.00 0.00 0.00 93 1008.8
20260904072238 72 68 1.0 1.0 0.00 0.00 0.00 93 1008.8
20260904071824 72 68 0.0 0.0 0.00 0.00 0.00 93 1008.8
20260904071406 72 68 0.0 0.0 0.00 0.00 0.00 93 1008.8
20260904070951 72 68 2.0 2.0 0.00 0.00 0.00 93 1008.8
20260904070535 72 68 1.0 1.0 0.00 0.00 0.00 93 1008.8
20260904070120 72 68 2.0 2.0 0.00 0.00 0.00 93 1008.8
20260904065233 72 68 0.0 0.0 0.00 0.00 0.00 93 1008.8
20260904064815 72 68 0.0 0.0 0.00 0.00 0.00 93 1008.8
20260904064358 72 68 0.0 0.0 0.00 0.00 0.00 93 1008.8
20260904063941 72 68 0.0 0.0 0.00 0.00 0.00 93 1008.8
20260904063525 73 68 0.0 0.0 0.00 0.00 0.00 92 1008.8
20260904063053 73 68 0.0 0.0 0.00 0.00 0.00 92 1008.8
20260904062622 73 68 0.0 0.0 0.00 0.00 0.00 92 1008.8
20260904062207 73 68 2.0 2.0 0.00 0.00 0.00 92 1008.8
20260904061751 73 68 1.0 1.0 0.00 0.00 0.00 92 1008.8
20260904061336 73 68 0.0 0.0 0.00 0.00 0.00 92 1008.8
20260904060449 73 68 0.0 0.0 0.00 0.00 0.00 92 1008.8
20260904060019 73 68 0.0 0.0 0.00 0.00 0.00 92 1008.8
20260904055603 73 68 0.0 0.0 0.00 0.00 0.00 91 1008.8
20260904054717 73 68 0.0 0.0 0.00 0.00 0.00 91 1008.8
20260904053815 73 68 0.0 0.0 0.00 0.00 0.00 91 1008.8
20260904053359 73 112 2.0 2.0 0.00 0.00 0.00 91 1008.8
20260904052927 73 45 0.0 0.0 0.00 0.00 0.00 91 1009.8
20260904052418 73 45 0.0 0.0 0.00 0.00 0.00 91 1009.8
20260904051842 73 45 1.0 1.0 0.00 0.00 0.00 91 1009.8
20260904051213 73 22 0.0 0.0 0.00 0.00 0.00 91 1009.8
20260904050645 73 22 0.0 0.0 0.00 0.00 0.00 91 1009.8
20260904050034 73 22 0.0 0.0 0.00 0.00 0.00 92 1009.8
20260904044826 73 22 0.0 0.0 0.00 0.00 0.00 92 1009.8
20260904044248 73 22 1.0 1.0 0.00 0.00 0.00 92 1009.8
20260904043619 73 45 0.0 0.0 0.00 0.00 0.00 92 1009.8
20260904043026 73 45 0.0 0.0 0.00 0.00 0.00 92 1009.8
20260904041822 74 22 0.0 0.0 0.00 0.00 0.00 91 1009.8
20260904041219 74 22 0.0 0.0 0.00 0.00 0.00 91 1009.8
20260904040620 74 22 0.0 0.0 0.00 0.00 0.00 91 1009.8
20260904040025 74 22 2.0 2.0 0.00 0.00 0.00 92 1009.8
20260904034217 74 22 2.0 2.0 0.00 0.00 0.00 91 1009.8
20260904033614 74 22 0.0 0.0 0.00 0.00 0.00 91 1009.8
20260904032426 76 22 0.0 0.0 0.00 0.00 0.00 89 1009.8
20260904031807 76 22 0.0 0.0 0.00 0.00 0.00 88 1009.8
20260904031220 75 22 0.0 0.0 0.00 0.00 0.00 88 1009.8
20260904030630 75 68 1.0 1.0 0.00 0.00 0.00 91 1009.8
20260904030036 75 90 0.0 0.0 0.00 0.00 0.00 90 1009.8
20260904025411 75 90 0.0 0.0 0.00 0.00 0.00 90 1009.8
20260904024825 75 22 1.0 1.0 0.00 0.00 0.00 90 1009.8
20260904024224 75 22 0.0 0.0 0.00 0.00 0.00 90 1009.8
20260904023042 75 0 0.0 0.0 0.00 0.00 0.00 90 1009.8
20260904022433 76 0 1.0 1.0 0.00 0.00 0.00 90 1009.8
20260904021206 76 0 0.0 0.0 0.00 0.00 0.00 88 1008.8
20260904020642 76 0 0.0 0.0 0.00 0.00 0.00 88 1008.8
20260904020022 76 0 0.0 0.0 0.00 0.00 0.00 88 1008.8
20260904015423 76 0 0.0 0.0 0.00 0.00 0.00 88 1008.8
20260904014240 77 22 0.0 0.0 0.00 0.00 0.00 86 1008.8
20260904013613 78 22 0.0 0.0 0.00 0.00 0.00 86 1008.8
20260904013043 77 22 1.0 1.0 0.00 0.00 0.00 86 1008.8
20260904012419 77 22 0.0 0.0 0.00 0.00 0.00 87 1008.8
20260904011825 77 22 1.0 1.0 0.00 0.00 0.00 86 1008.8
20260904010009 79 338 0.0 0.0 0.00 0.00 0.00 85 1008.8
20260904005444 80 338 0.0 0.0 0.00 0.00 0.00 82 1008.8